Location: Bishausen
(51.6334°N, 9.9631°E)
Time: 10:07:58
(UTC+00:00)

Cosmos 2322 Rocket - Pass Details

Date: 23 May 2024
Orbit: 832 x 850 km, 71.0° (Epoch: 18 June)

Event Time Altitude Azimuth Distance (km) Brightness Sun altitude
Rises 00:50:31 0° 330° (NNW) 3,400 5.9 -14.9°
Reaches altitude 10° 00:52:59 10° 333° (NNW) 2,465 5.2 -14.7°
Maximum altitude 00:58:37 68° 56° (ENE) 909 2.5 -14.4°
Drops below altitude 10° 01:04:15 10° 140° (SE) 2,463 4.4 -14.0°
Sets 01:06:43 0° 143° (SE) 3,397 5.1 -13.8°
